DOOM31 KLSV-KBAD

Flight info

Callsign DOOM31
Flight time N/A
Altitude 39000
Route BLD TBC TACOH KF24Y CARBS
Aircraft B52/H-V/N

Departure

Time 2026-04-12 18:49
Airport Nellis Air Force Base (KLSV)

Arrival

Time N/A
Airport Barksdale Air Force Base (KBAD)
Time Latitude Longitude Altitude Speed Heading
2026-04-12 18:10 36.22880 -115.03277 1909 ft 0 kts 310°
2026-04-12 18:40 36.22880 -115.03276 1884 ft 0 kts 310°
2026-04-12 18:41 36.22882 -115.03279 1884 ft 3 kts 310°
2026-04-12 18:41 36.22914 -115.03319 1884 ft 3 kts 320°
2026-04-12 18:41 36.22926 -115.03322 1884 ft 3 kts 335°
2026-04-12 18:41 36.22939 -115.03319 1884 ft 1 kts 357°
2026-04-12 18:42 36.22947 -115.03311 1883 ft 2 kts 19°
2026-04-12 18:42 36.22957 -115.03297 1882 ft 7 kts 40°
2026-04-12 18:42 36.23040 -115.03209 1882 ft 21 kts 40°
2026-04-12 18:43 36.23266 -115.03124 1879 ft 18 kts
2026-04-12 18:43 36.23392 -115.03087 1879 ft 15 kts 21°
2026-04-12 18:43 36.23469 -115.03007 1879 ft 18 kts 43°
2026-04-12 18:44 36.23584 -115.02881 1878 ft 27 kts 41°
2026-04-12 18:44 36.23748 -115.02703 1878 ft 36 kts 41°
2026-04-12 18:44 36.23953 -115.02478 1878 ft 44 kts 41°
2026-04-12 18:44 36.24160 -115.02257 1878 ft 36 kts 40°
2026-04-12 18:45 36.24353 -115.02050 1878 ft 38 kts 41°
2026-04-12 18:45 36.24485 -115.01941 1878 ft 2 kts 26°
2026-04-12 18:45 36.24492 -115.01942 1878 ft 1 kts 12°
2026-04-12 18:45 36.24517 -115.01956 1878 ft 2 kts 344°
2026-04-12 18:46 36.24568 -115.02030 1878 ft 16 kts 310°
2026-04-12 18:46 36.24585 -115.02105 1876 ft 6 kts 279°
2026-04-12 18:46 36.24567 -115.02169 1874 ft 9 kts 248°
2026-04-12 18:46 36.24525 -115.02218 1874 ft 10 kts 223°
2026-04-12 18:47 36.24501 -115.02245 1874 ft 0 kts 222°
2026-04-12 18:48 36.24500 -115.02245 1874 ft 2 kts 222°
2026-04-12 18:48 36.24175 -115.02598 1873 ft 123 kts 221°
2026-04-12 18:48 36.23374 -115.03477 1900 ft 171 kts 220°
2026-04-12 18:48 36.22481 -115.04472 2413 ft 177 kts 221°
2026-04-12 18:49 36.21517 -115.05480 3040 ft 188 kts 222°
2026-04-12 18:49 36.20362 -115.06646 3527 ft 243 kts 220°
2026-04-12 18:49 36.18845 -115.08144 4149 ft 311 kts 219°
2026-04-12 18:49 36.17003 -115.09931 4880 ft 363 kts 218°
2026-04-12 18:50 36.14914 -115.11906 6022 ft 394 kts 218°
2026-04-12 18:50 36.12621 -115.13883 7591 ft 408 kts 212°
2026-04-12 18:50 36.09986 -115.15411 8880 ft 402 kts 203°
2026-04-12 18:50 36.07528 -115.16177 8817 ft 336 kts 190°
2026-04-12 18:51 36.05354 -115.16354 8558 ft 301 kts 186°
2026-04-12 18:51 36.03322 -115.16457 8193 ft 281 kts 181°
2026-04-12 18:51 36.01520 -115.15916 8373 ft 263 kts 166°
2026-04-12 18:51 35.99930 -115.14769 8191 ft 264 kts 149°
2026-04-12 18:52 35.98633 -115.13170 7929 ft 268 kts 137°
2026-04-12 18:52 35.97407 -115.11351 7337 ft 282 kts 135°
2026-04-12 18:52 35.96204 -115.09463 6997 ft 283 kts 132°
2026-04-12 18:52 35.95399 -115.07296 7096 ft 275 kts 113°
2026-04-12 18:53 35.95144 -115.04926 6970 ft 281 kts 96°
2026-04-12 18:53 35.95329 -115.02496 6622 ft 288 kts 84°
2026-04-12 18:53 35.95629 -114.99988 6605 ft 305 kts 85°
2026-04-12 18:53 35.95925 -114.97343 6628 ft 322 kts 86°
2026-04-12 18:54 35.96151 -114.94545 6742 ft 328 kts 90°
2026-04-12 18:54 35.96285 -114.91752 7123 ft 325 kts 90°
2026-04-12 18:54 35.96448 -114.88926 7123 ft 336 kts 89°
2026-04-12 18:54 35.96614 -114.86040 7107 ft 317 kts 89°
2026-04-12 18:55 35.96769 -114.83545 6883 ft 279 kts 89°
2026-04-12 18:55 35.96911 -114.81273 6640 ft 255 kts 89°
2026-04-12 18:55 35.97035 -114.79134 6365 ft 246 kts 89°
2026-04-12 18:55 35.97141 -114.77042 6094 ft 246 kts 90°
2026-04-12 18:56 35.97237 -114.74888 5899 ft 255 kts 90°
2026-04-12 18:56 35.97308 -114.72706 6035 ft 252 kts 91°
2026-04-12 18:56 35.97375 -114.70576 6077 ft 249 kts 91°
2026-04-12 18:56 35.97438 -114.68394 6282 ft 264 kts 91°
2026-04-12 18:57 35.97520 -114.66090 7036 ft 269 kts 90°
2026-04-12 18:57 35.97630 -114.63773 7877 ft 270 kts 90°
2026-04-12 18:57 35.97748 -114.61465 8656 ft 275 kts 90°
2026-04-12 18:57 35.97859 -114.59053 9307 ft 286 kts 90°
2026-04-12 18:58 35.98012 -114.56584 10047 ft 286 kts 89°
2026-04-12 18:58 35.98211 -114.54098 10585 ft 296 kts 89°
2026-04-12 18:58 35.98431 -114.51451 11002 ft 337 kts 89°
2026-04-12 18:58 35.98688 -114.48444 12065 ft 356 kts 88°
2026-04-12 18:59 35.98994 -114.45395 13737 ft 361 kts 88°
2026-04-12 18:59 35.99332 -114.42265 14880 ft 376 kts 88°
2026-04-12 18:59 35.99673 -114.38983 15908 ft 392 kts 88°
2026-04-12 18:59 36.00031 -114.35606 16886 ft 407 kts 87°
2026-04-12 19:00 36.00413 -114.32050 17863 ft 423 kts 86°
2026-04-12 19:00 36.00806 -114.28382 18835 ft 434 kts 86°
2026-04-12 19:00 36.01204 -114.24698 19911 ft 442 kts 86°
2026-04-12 19:00 36.01597 -114.20882 21001 ft 451 kts 87°
2026-04-12 19:01 36.01976 -114.16987 22026 ft 462 kts 86°
2026-04-12 19:01 36.02347 -114.12977 23012 ft 474 kts 87°
2026-04-12 19:01 36.02719 -114.08929 23870 ft 488 kts 87°
2026-04-12 19:01 36.03112 -114.04702 24667 ft 499 kts 87°
2026-04-12 19:02 36.03518 -114.00399 25589 ft 506 kts 87°
2026-04-12 19:02 36.03901 -113.96041 26571 ft 510 kts 89°
2026-04-12 19:02 36.04152 -113.91658 27471 ft 513 kts 91°
2026-04-12 19:02 36.04360 -113.87289 28478 ft 515 kts 91°
2026-04-12 19:03 36.04574 -113.82840 29255 ft 524 kts 91°
2026-04-12 19:03 36.04786 -113.78277 29829 ft 535 kts 91°
2026-04-12 19:03 36.05006 -113.73665 30504 ft 538 kts 91°
2026-04-12 19:03 36.05262 -113.69049 31115 ft 542 kts 90°
2026-04-12 19:04 36.05531 -113.64403 31629 ft 549 kts 90°
2026-04-12 19:04 36.05804 -113.59658 32152 ft 554 kts 90°
2026-04-12 19:04 36.06106 -113.54907 32962 ft 551 kts 89°
2026-04-12 19:04 36.06439 -113.50183 33598 ft 555 kts 89°
2026-04-12 19:05 36.06760 -113.45397 33488 ft 566 kts 89°
2026-04-12 19:05 36.07107 -113.40577 34323 ft 554 kts 89°
2026-04-12 19:05 36.07460 -113.35922 35343 ft 544 kts 88°
2026-04-12 19:05 36.07821 -113.31260 36112 ft 542 kts 89°
2026-04-12 19:06 36.08180 -113.26626 36584 ft 548 kts 89°
2026-04-12 19:06 36.08567 -113.21887 37099 ft 552 kts 88°
2026-04-12 19:06 36.08981 -113.17158 37657 ft 551 kts 87°
2026-04-12 19:06 36.09386 -113.12526 38454 ft 546 kts 88°
2026-04-12 19:07 36.09732 -113.07874 39102 ft 541 kts 89°
2026-04-12 19:07 36.10405 -112.98410 38955 ft 559 kts 89°
2026-04-12 19:08 36.11020 -112.88872 39065 ft 558 kts 89°
2026-04-12 19:08 36.11630 -112.79281 39114 ft 558 kts 89°
2026-04-12 19:09 36.12142 -112.71292 39134 ft 558 kts 89°
2026-04-12 19:09 36.12812 -112.61747 39148 ft 559 kts 89°
2026-04-12 19:10 36.13437 -112.52147 39169 ft 559 kts 89°
2026-04-12 19:10 36.14054 -112.42604 39249 ft 559 kts 89°
2026-04-12 19:11 36.14679 -112.33003 39274 ft 559 kts 89°
2026-04-12 19:11 36.15297 -112.23396 39296 ft 560 kts 90°
2026-04-12 19:12 36.15807 -112.13855 39296 ft 558 kts 90°
2026-04-12 19:12 36.16336 -112.04345 39269 ft 554 kts 89°
2026-04-12 19:13 36.16811 -111.94781 39237 ft 553 kts 90°
2026-04-12 19:13 36.17298 -111.85315 39184 ft 553 kts 90°
2026-04-12 19:13 36.17536 -111.80533 38997 ft 556 kts 90°
2026-04-12 19:14 36.17658 -111.75742 38762 ft 557 kts 93°
2026-04-12 19:14 36.17339 -111.66337 39111 ft 539 kts 99°
2026-04-12 19:14 36.16995 -111.61745 39644 ft 530 kts 101°
2026-04-12 19:15 36.16570 -111.57219 40193 ft 528 kts 102°
2026-04-12 19:15 36.15579 -111.48138 40196 ft 538 kts 103°
2026-04-12 19:16 36.14101 -111.39023 40027 ft 538 kts 109°
2026-04-12 19:16 36.13122 -111.34552 39891 ft 538 kts 112°
2026-04-12 19:16 36.12035 -111.30175 39880 ft 536 kts 114°
2026-04-12 19:16 36.10903 -111.25811 40090 ft 529 kts 114°
2026-04-12 19:17 36.09776 -111.21476 40036 ft 529 kts 114°
2026-04-12 19:17 36.07540 -111.12873 40022 ft 526 kts 114°
2026-04-12 19:18 36.05299 -111.04266 40021 ft 525 kts 114°
2026-04-12 19:18 36.03055 -110.95662 40006 ft 525 kts 114°
2026-04-12 19:18 36.01932 -110.91366 39821 ft 526 kts 114°
2026-04-12 19:19 36.00823 -110.87051 39573 ft 528 kts 114°
2026-04-12 19:19 35.98619 -110.78452 39440 ft 527 kts 114°
2026-04-12 19:20 35.96400 -110.69793 39306 ft 528 kts 114°
2026-04-12 19:20 35.94203 -110.61175 39160 ft 529 kts 114°
2026-04-12 19:21 35.91979 -110.52507 39033 ft 530 kts 114°
2026-04-12 19:21 35.90863 -110.48167 38927 ft 530 kts 114°
2026-04-12 19:21 35.89756 -110.43876 38855 ft 531 kts 113°
2026-04-12 19:22 35.87519 -110.35204 38931 ft 528 kts 113°
2026-04-12 19:22 35.85296 -110.26565 39100 ft 526 kts 113°
2026-04-12 19:23 35.83091 -110.17997 39238 ft 526 kts 113°
2026-04-12 19:23 35.80887 -110.09448 39353 ft 524 kts 113°
2026-04-12 19:23 35.79868 -110.05171 39894 ft 515 kts 110°
2026-04-12 19:24 35.79021 -110.00933 40768 ft 502 kts 108°
2026-04-12 19:24 35.77341 -109.92444 40721 ft 517 kts 108°
2026-04-12 19:25 35.75621 -109.83834 40725 ft 520 kts 108°
2026-04-12 19:25 35.73885 -109.75174 40730 ft 520 kts 108°
2026-04-12 19:26 35.72162 -109.66581 40737 ft 520 kts 108°
2026-04-12 19:26 35.70419 -109.57906 40739 ft 520 kts 108°
2026-04-12 19:27 35.68684 -109.49263 40754 ft 520 kts 108°
2026-04-12 19:27 35.66960 -109.40670 40808 ft 520 kts 108°
2026-04-12 19:28 35.65218 -109.32005 40871 ft 520 kts 108°
2026-04-12 19:28 35.63474 -109.23367 40920 ft 522 kts 108°
2026-04-12 19:29 35.61729 -109.14738 40955 ft 522 kts 108°
2026-04-12 19:29 35.59972 -109.06057 40949 ft 523 kts 108°
2026-04-12 19:30 35.58215 -108.97378 40921 ft 523 kts 108°
2026-04-12 19:30 35.56467 -108.88736 40921 ft 522 kts 108°
2026-04-12 19:31 35.54711 -108.80055 40923 ft 522 kts 108°
2026-04-12 19:31 35.52971 -108.71454 40642 ft 523 kts 108°
2026-04-12 19:32 35.51212 -108.62776 40643 ft 522 kts 108°
2026-04-12 19:32 35.49810 -108.55874 40685 ft 521 kts 108°
2026-04-12 19:33 35.48045 -108.47201 40676 ft 522 kts 108°